Regional Weather Roundup
Issued by NWS Raleigh/Durham, NC

Home | Current Version | Previous Version | Text Only | Print | Product List | Glossary On
Versions: 1 2 3 4 5 6 7 8 9 10 11 12 13 14 15 16 17 18 19 20 21 22 23 24 25 26 27 28 29 30 31 32 33 34 35 36 37 38 39 40 41 42 43 44 45 46 47 48 49 50
000
ASUS42 KRAH 300510
RWRRAH
NORTH CAROLINA WEATHER ROUNDUP
NATIONAL WEATHER SERVICE RALEIGH NC
100 AM EDT WED JUL 30 2014

NOTE: "FAIR" INDICATES FEW OR NO CLOUDS BELOW 12,000 FEET WITH NO
SIGNIFICANT WEATHER AND/OR OBSTRUCTIONS TO VISIBILITY.

NCZ001-053-055-056-065-067-300600-
WESTERN NORTH CAROLINA

CITY           SKY/WX    TMP DP  RH WIND       PRES   REMARKS
ASHEVILLE      CLEAR     60  49  66 N6        30.11S
JEFFERSON      CLEAR     55  46  72 CALM      30.13S
MORGANTON      CLEAR     62  54  77 N3        30.10S
HICKORY        CLEAR     64  53  67 CALM      30.05R
RUTHERFORDTON  PTCLDY    64  54  70 NW6       30.06S
MOUNT AIRY     CLEAR     65  53  65 CALM      30.05S
BOONE          CLEAR     55  48  75 W5        30.14S
$$

NCZ021-022-025-041-071-084-088-300600-
CENTRAL NORTH CAROLINA

CITY           SKY/WX    TMP DP  RH WIND       PRES   REMARKS
CHARLOTTE      PTCLDY    66  55  67 N9        30.02S
GREENSBORO     PTCLDY    67  60  78 N5        30.03R
WINSTON-SALEM  CLEAR     67  53  61 N8        30.05R
RALEIGH-DURHAM PTCLDY    68  60  75 SE3       30.00S
FORT BRAGG     CLEAR     68  63  85 CALM      29.99S
FAYETTEVILLE   CLEAR     69  61  75 CALM      29.98F
BURLINGTON     CLOUDY    69  60  73 N7        30.02R
LAURINBURG     CLEAR     67  61  81 N3        29.99S
$$

NCZ011-015-027-028-043-044-047-080-103-300600-
NORTHEASTERN NORTH CAROLINA

CITY           SKY/WX    TMP DP  RH WIND       PRES   REMARKS
ROCKY MT-WILSO CLEAR     66  60  81 CALM      30.00S
GREENVILLE     CLEAR     68  64  88 CALM      30.01F
WASHINGTON     PTCLDY    68  64  86 CALM      30.01S
ELIZABETH CITY CLEAR     69  62  78 E5        30.00F
MANTEO         NOT AVBL
CAPE HATTERAS  CLOUDY    75  64  68 E6        29.98F
$$

NCZ078-087-090-091-093-098-101-300600-
SOUTHEASTERN NORTH CAROLINA

CITY           SKY/WX    TMP DP  RH WIND       PRES   REMARKS
LUMBERTON      CLEAR     71  63  75 NE3       29.98S
GOLDSBORO      CLEAR     65  65  97 SE2       29.98S
KINSTON        CLEAR     71  64  78 CALM      30.00F
KENANSVILLE    PTCLDY    64  62  93 CALM      30.00S
NEW BERN       MOCLDY    74  65  73 E5        30.00F
CHERRY POINT   PTCLDY    72  68  87 SE3       29.99F
BEAUFORT       PTCLDY    75  66  73 NE5       29.98S
JACKSONVILLE   PTCLDY    73  68  84 E7        29.98F
WILMINGTON     CLOUDY    70  69  97 CALM      29.97F
$$




USA.gov is the U.S. government's official web portal to all federal, state and local government web resources and services.